Location: Aurora Center
(43.5271°N, 98.5894°W)
Time: 02:44:28
(UTC-05:00)

Vanguard 1 Rocket - Visible Passes

Search period start: 15 July 2024 00:00
Search period end: 25 July 2024 00:00
Orbit: 650 x 4219 km, 34.3° (Epoch: 14 July)

Date Brightness Start Highest point End Pass type
(mag) Time Alt. Az. Time Alt. Az. Time Alt. Az.
15 Jul 9.0 01:46:44 10° WSW 01:54:05 40° S 02:07:27 10° SE visible
15 Jul 10.2 04:12:26 10° WSW 04:21:12 23° SSW 04:34:23 10° SSE visible
15 Jul 8.1 22:12:38 10° SW 22:17:02 32° SSE 22:23:37 10° ESE visible
16 Jul 8.5 00:35:34 10° WSW 00:41:43 42° S 00:43:14 39° SSE visible
16 Jul 9.9 03:00:00 10° WSW 03:10:20 27° S 03:21:11 10° SSE visible
16 Jul 10.6 05:31:41 10° SW 05:35:41 11° SW 05:40:13 10° SSW visible
16 Jul 8.1 23:24:36 10° WSW 23:29:46 40° S 23:33:48 25° SE visible
17 Jul 9.4 01:48:17 10° WSW 02:05:24 13° SE 02:07:12 10° SE visible
17 Jul 10.4 04:22:52 17° SSW 04:22:52 17° SSW 04:31:51 10° S visible
17 Jul 8.0 22:13:47 10° SW 22:18:08 33° SSE 22:24:33 10° ESE visible
18 Jul 8.6 00:37:01 10° WSW 00:41:57 36° SSW 00:41:57 36° SSW visible
18 Jul 10.5 03:17:17 14° SSE 03:17:17 14° SSE 03:19:52 10° SSE visible
18 Jul 8.2 23:25:58 10° WSW 23:30:55 37° S 23:33:14 30° SE visible
19 Jul 9.8 01:50:00 10° WSW 02:11:19 - SE 01:50:22 12° WSW visible
19 Jul 7.9 22:15:01 10° WSW 22:19:17 33° S 22:24:37 13° ESE visible
20 Jul 8.9 00:38:32 10° WSW 00:41:46 26° SW 00:41:46 26° SW visible
20 Jul 8.3 23:27:22 10° WSW 23:32:06 33° S 23:33:15 31° SSE visible
21 Jul 8.0 22:16:19 10° WSW 22:20:28 32° S 22:24:48 15° ESE visible
22 Jul 9.3 00:40:13 10° WSW 00:41:57 17° SW 00:41:57 17° SW visible
22 Jul 8.4 23:28:52 10° WSW 23:33:17 28° S 23:33:33 27° S visible
23 Jul 8.0 22:17:39 10° WSW 22:21:38 29° S 22:25:11 17° SE visible
24 Jul 9.6 00:42:11 10° WSW 00:42:21 11° WSW 00:42:21 11° WSW visible
24 Jul 8.7 23:30:30 10° WSW 23:34:01 22° SSW 23:34:01 22° SSW visible
